W0KHZ Weather Reports


time (UTC)temp
C
wind
direction
speed
KPH
gust
KPH
rain 1hr
cm
rain 24hr
cm
rain mn
cm
humidity
%
barometer
mb
20260903113028 20 0.0 0.0 0.05 0.08 0.05 92 1041.7
20260903112525 20 0.0 0.0 0.05 0.08 0.05 92 1041.3
20260903112042 20 0.0 0.0 0.00 0.05 0.00 92 1040.9
20260903111519 20 0.0 0.0 0.00 0.05 0.00 92 1040.8
20260903111016 20 0.0 0.0 0.00 0.08 0.00 92 1040.5
20260903110552 20 0.0 0.0 0.00 0.10 0.00 92 1040.4
20260903110109 20 0.0 0.0 0.00 0.10 0.00 92 1040.2
20260903105526 20 0.0 0.0 0.00 0.10 0.00 92 1040.3
20260903105023 20 0.0 0.0 0.00 0.10 0.00 92 1040.4
20260903104521 20 0.0 0.0 0.00 0.10 0.00 92 1040.6
20260903104018 20 0.0 0.0 0.00 0.10 0.00 92 1040.7
20260903103535 20 0.0 0.0 0.00 0.13 0.00 92 1040.3
20260903103031 20 0.0 0.0 0.00 0.13 0.00 92 1040.3
20260903102527 20 0.0 0.0 0.00 0.13 0.00 92 1040.2
20260903102025 20 0.0 0.0 0.00 0.13 0.00 92 1040.1
20260903101522 20 0.0 0.0 0.00 0.18 0.00 92 1039.8
20260903101019 20 0.0 0.0 0.00 0.18 0.00 92 1039.8
20260903100516 20 0.0 0.0 0.00 0.18 0.00 92 1039.8
20260903100031 20 0.0 0.0 0.00 0.20 0.00 92 1039.7
20260903095528 20 0.0 0.0 0.00 0.23 0.00 92 1039.8
20260903095026 20 0.0 0.0 0.00 0.23 0.00 92 1040.0
20260903094523 20 0.0 0.0 0.00 0.23 0.00 92 1039.8
20260903094020 20 0.0 0.0 0.00 0.23 0.00 92 1039.6
20260903093518 20 0.0 0.0 0.00 0.23 0.00 92 1039.7
20260903093033 20 0.0 0.0 0.00 0.23 0.00 92 1039.8
20260903092530 20 0.0 0.0 0.00 0.23 0.00 92 1039.6
20260903092027 20 0.0 0.0 0.00 0.23 0.00 92 1039.5
20260903091524 20 0.0 0.0 0.00 0.23 0.00 92 1039.6
20260903091041 20 0.0 0.0 0.00 0.23 0.00 92 1039.5
20260903090519 20 0.0 0.0 0.00 0.23 0.00 92 1039.5
20260903090036 20 0.0 0.0 0.00 0.23 0.00 92 1039.5
20260903085532 20 0.0 0.0 0.00 0.23 0.00 92 1039.5
20260903085049 20 0.0 0.0 0.00 0.23 0.00 92 1039.5
20260903084526 20 0.0 0.0 0.00 0.23 0.00 92 1039.7
20260903084023 20 0.0 0.0 0.00 0.23 0.00 92 1039.7
20260903083520 20 0.0 0.0 0.00 0.23 0.00 92 1039.6
20260903083017 20 0.0 0.0 0.00 0.23 0.00 92 1039.7
20260903082534 20 0.0 0.0 0.00 0.23 0.00 92 1039.8
20260903082110 20 0.0 0.0 0.00 0.23 0.00 92 1039.7
20260903081527 20 0.0 0.0 0.00 0.23 0.00 92 1039.6
20260903081025 20 0.0 0.0 0.00 0.23 0.00 92 1039.7
20260903080522 20 0.0 0.0 0.00 0.23 0.00 91 1039.7
20260903080019 20 0.0 0.0 0.00 0.23 0.00 92 1039.6
20260903075516 20 0.0 0.0 0.00 0.23 0.00 92 1039.7
20260903075112 20 0.0 0.0 0.00 0.23 0.00 91 1039.5
20260903074529 20 0.0 0.0 0.00 0.23 0.00 91 1039.6
20260903074026 20 0.0 0.0 0.00 0.25 0.00 91 1039.6
20260903073543 20 0.0 0.0 0.00 0.28 0.00 91 1039.6
20260903073020 20 0.0 0.0 0.00 0.46 0.00 91 1039.6
20260903072517 20 0.0 0.0 0.00 0.46 0.00 91 1039.6
20260903072033 20 0.0 0.0 0.00 0.46 0.00 91 1039.6
20260903071530 20 0.0 0.0 0.00 0.46 0.00 91 1039.7
20260903071027 20 0.0 0.0 0.00 0.46 0.00 91 1039.8
20260903070524 20 0.0 0.0 0.00 0.46 0.00 91 1039.8
20260903070022 20 0.0 0.0 0.00 0.46 0.00 91 1039.8
20260903065519 20 0.0 0.0 0.00 0.46 0.00 91 1039.9
20260903065017 20 0.0 0.0 0.00 0.46 0.00 91 1039.9
20260903064553 20 0.0 0.0 0.00 0.46 0.00 91 1040.1
20260903064050 20 0.0 0.0 0.00 0.46 0.00 91 1040.1
20260903063527 20 0.0 0.0 0.00 0.46 0.00 91 1040.2
20260903063045 20 0.0 0.0 0.00 0.46 0.00 91 1040.1
20260903062522 20 0.0 0.0 0.00 0.46 0.00 91 1040.2
20260903062020 20 0.0 0.0 0.00 0.46 0.00 91 1040.3
20260903061537 20 0.0 0.0 0.00 0.46 0.00 91 1040.2
20260903061032 20 0.0 0.0 0.00 0.46 0.00 91 1040.4
20260903060530 20 0.0 0.0 0.00 0.46 0.00 91 1040.3
20260903060027 20 0.0 0.0 0.00 0.46 0.00 91 1040.3
20260903055524 20 0.0 0.0 0.00 0.46 0.00 91 1040.3
20260903055021 20 0.0 0.0 0.00 0.46 0.00 91 1040.3
20260903054519 20 0.0 0.0 0.00 0.46 0.00 91 1040.3
20260903054016 20 0.0 0.0 0.00 0.46 0.00 91 1040.2
20260903053532 20 0.0 0.0 0.00 0.46 0.00 91 1040.3
20260903053030 21 0.0 0.0 0.00 0.46 0.00 91 1040.3
20260903052526 21 0.0 0.0 0.00 0.46 0.00 91 1040.3
20260903052044 21 0.0 0.0 0.00 0.46 0.00 91 1040.3
20260903051521 21 0.0 0.0 0.00 0.46 0.00 91 1040.4
20260903051018 21 0.0 0.0 0.00 0.46 0.00 91 1040.5
20260903050535 21 0.0 0.0 0.00 0.46 0.00 91 1040.4
20260903050031 21 0.0 0.0 0.00 0.46 0.46 90 1040.5
20260903045529 21 0.0 0.0 0.00 0.46 0.46 90 1040.4
20260903045025 21 0.0 0.0 0.00 0.46 0.46 90 1040.5
20260903044542 21 0.0 0.0 0.00 0.46 0.46 90 1040.5
20260903044020 21 0.0 0.0 0.00 0.46 0.46 90 1040.4
20260903043517 21 0.0 0.0 0.00 0.46 0.46 90 1040.5
20260903043032 21 0.0 0.0 0.00 0.46 0.46 90 1040.3
20260903042530 21 0.0 0.0 0.00 0.46 0.46 90 1040.5
20260903042046 21 0.0 0.0 0.00 0.46 0.46 90 1040.5
20260903041524 21 0.0 0.0 0.00 0.46 0.46 90 1040.5
20260903041020 21 0.0 0.0 0.00 0.46 0.46 90 1040.4
20260903040518 21 0.0 0.0 0.00 0.46 0.46 89 1040.6
20260903040034 21 0.0 0.0 0.00 0.46 0.46 89 1040.6
20260903035550 21 0.0 0.0 0.00 0.46 0.46 89 1040.6
20260903035047 21 0.0 0.0 0.00 0.46 0.46 89 1040.6
20260903034525 21 0.0 0.0 0.00 0.48 0.46 89 1040.5
20260903034022 21 0.0 0.0 0.00 0.48 0.46 89 1040.6
20260903033519 21 0.0 0.0 0.00 0.48 0.46 89 1040.7
20260903033016 21 0.0 0.0 0.00 0.48 0.46 89 1040.7
20260903032533 21 0.0 0.0 0.00 0.48 0.46 89 1040.7
20260903032029 21 0.0 0.0 0.00 0.48 0.46 88 1040.7
20260903031527 21 0.0 0.0 0.00 0.48 0.46 89 1040.6
20260903031024 21 0.0 0.0 0.00 0.48 0.46 89 1040.6
20260903030520 21 0.0 0.0 0.00 0.48 0.46 88 1040.7
20260903030018 21 0.0 0.0 0.00 0.48 0.46 88 1040.7
20260903025534 21 0.0 0.0 0.00 0.48 0.46 88 1040.7
20260903025050 21 0.0 0.0 0.00 0.48 0.46 88 1040.6
20260903024527 21 0.0 0.0 0.00 0.48 0.46 88 1040.7
20260903024024 22 0.0 0.0 0.00 0.48 0.46 88 1040.8
20260903023542 22 0.0 0.0 0.00 0.48 0.46 88 1040.8
20260903023039 22 0.0 0.0 0.00 0.48 0.46 87 1040.8
20260903022537 22 0.0 0.0 0.00 0.48 0.46 87 1040.7
20260903022033 22 0.0 0.0 0.00 0.48 0.46 87 1040.7
20260903021530 22 0.0 0.0 0.00 0.48 0.46 87 1040.6
20260903021026 22 0.0 0.0 0.00 0.48 0.46 87 1040.6
20260903020523 22 0.0 0.0 0.00 0.48 0.46 87 1040.6
20260903020021 22 0.0 0.0 0.00 0.48 0.46 86 1040.5
20260903015518 22 0.0 0.0 0.00 0.48 0.46 86 1040.5
20260903015035 22 0.0 0.0 0.00 0.48 0.46 86 1040.3
20260903014551 22 0.0 0.0 0.00 0.48 0.46 86 1040.3
20260903014028 22 0.0 0.0 0.00 0.48 0.46 85 1040.1
20260903013525 22 0.0 0.0 0.00 0.48 0.46 85 1040.1
20260903013022 22 0.0 0.0 0.00 0.48 0.46 85 1040.2
20260903012519 23 0.0 0.0 0.00 0.48 0.46 85 1040.1
20260903012017 23 0.0 0.0 0.00 0.48 0.46 85 1040.0
20260903011532 23 0.0 0.0 0.00 0.48 0.46 85 1039.9
20260903011029 23 0.0 0.0 0.00 0.48 0.46 84 1040.1
20260903010546 23 0.0 0.0 0.00 0.51 0.46 84 1040.0
20260903010023 23 0.0 0.0 0.00 0.51 0.46 83 1039.9
20260903005521 23 0.0 0.0 0.00 0.51 0.46 83 1039.9
20260903005018 24 0.0 0.0 0.00 0.51 0.46 82 1039.9
20260903004534 24 0.0 0.0 0.00 0.51 0.46 82 1040.0
20260903004030 24 0.0 0.0 0.00 0.51 0.46 82 1039.9
20260903003528 25 0.0 0.0 0.00 0.51 0.46 81 1040.0
20260903003025 25 0.0 0.0 0.00 0.51 0.46 80 1039.9
20260903002522 25 0.0 0.0 0.00 0.53 0.46 80 1039.9
20260903002019 25 0.0 0.0 0.00 0.53 0.46 79 1040.0
20260903001516 26 0.0 0.0 0.00 0.53 0.46 79 1040.0
20260903001031 26 0.0 0.0 0.00 0.53 0.46 78 1039.8
20260903000528 26 0.0 0.0 0.00 0.53 0.46 77 1039.9
20260903000025 27 0.0 0.0 0.00 0.53 0.46 76 1039.9
20260902235523 27 0.0 0.0 0.00 0.53 0.46 76 1039.8
20260902235020 27 0.0 0.0 0.00 0.56 0.46 75 1039.8
20260902234517 27 0.0 0.0 0.00 0.56 0.46 75 1039.9
20260902234034 27 0.0 0.0 0.00 0.56 0.46 75 1039.7
20260902233531 27 0.0 0.0 0.00 0.56 0.46 74 1039.8
20260902233048 28 0.0 0.0 0.00 0.56 0.46 73 1039.6
20260902232526 28 0.0 0.0 0.00 0.56 0.46 72 1039.4
20260902232023 28 0.0 0.0 0.00 0.56 0.46 72 1039.3
20260902231520 28 0.0 0.0 0.00 0.56 0.46 68 1039.2
20260902231017 28 145 0.0 1.6 0.00 0.66 0.46 69 1039.3
20260902230553 28 145 0.0 1.6 0.00 0.66 0.46 69 1039.6
20260902230109 28 0.0 0.0 0.00 0.66 0.46 67 1039.5
20260902225527 28 0.0 0.0 0.00 0.66 0.46 66 1039.6
20260902225024 28 145 0.0 1.6 0.00 0.66 0.46 66 1039.7
20260902224521 28 145 0.0 1.6 0.00 0.66 0.46 65 1039.6
20260902224018 28 0.0 0.0 0.00 0.66 0.46 66 1039.7
20260902223535 28 145 0.0 1.6 0.00 0.66 0.46 66 1039.7
20260902223031 29 145 0.0 3.2 0.00 0.66 0.46 66 1039.7
20260902222528 29 145 0.0 3.2 0.00 0.66 0.46 65 1039.7
20260902222025 29 145 0.0 1.6 0.00 0.66 0.46 65 1039.8
20260902221542 29 145 0.0 3.2 0.00 0.66 0.46 65 1039.8
20260902221019 29 144 0.0 1.6 0.00 0.66 0.46 66 1039.9
20260902220516 29 144 0.0 1.6 0.00 0.66 0.46 64 1040.0
20260902220032 30 144 0.0 1.6 0.00 0.66 0.46 64 1039.9
20260902215529 30 0.0 0.0 0.00 0.66 0.46 64 1039.8
20260902215027 30 144 0.0 3.2 0.00 0.66 0.46 63 1039.8
20260902214523 30 144 0.0 1.6 0.00 0.66 0.46 63 1039.8
20260902214021 30 144 0.0 3.2 0.00 0.66 0.46 64 1039.8
20260902213517 30 144 0.0 3.2 0.00 0.66 0.46 63 1039.7
20260902213054 30 144 0.0 1.6 0.00 0.66 0.46 63 1039.9
20260902212530 31 144 1.6 4.8 0.00 0.66 0.46 65 1039.8
20260902212027 31 145 0.0 1.6 0.00 0.66 0.46 63 1039.9
20260902211524 31 145 0.0 3.2 0.00 0.66 0.46 64 1039.9
20260902211041 31 145 0.0 1.6 0.00 0.66 0.46 64 1040.0
20260902210518 31 144 1.6 3.2 0.00 0.66 0.46 65 1040.0
20260902210015 31 144 1.6 3.2 0.00 0.66 0.46 65 1040.0
20260902205531 31 144 1.6 4.8 0.00 0.66 0.46 66 1040.1
20260902205048 31 145 1.6 3.2 0.00 0.66 0.46 66 1040.0
20260902204545 31 132 3.2 6.4 0.00 0.66 0.46 66 1040.1
20260902204022 31 128 3.2 4.8 0.00 0.66 0.46 66 1040.2
20260902203520 31 191 1.6 4.8 0.00 0.66 0.46 64 1040.3
20260902203017 31 218 0.0 4.8 0.00 0.66 0.46 65 1040.3
20260902202554 31 213 0.0 3.2 0.00 0.66 0.46 65 1040.2
20260902202030 31 213 1.6 3.2 0.00 0.66 0.46 66 1040.1
20260902201527 31 214 0.0 3.2 0.00 0.66 0.46 65 1040.2
20260902201023 31 214 0.0 4.8 0.00 0.66 0.46 64 1040.3
20260902200520 31 213 0.0 4.8 0.00 0.66 0.46 67 1040.3
20260902200017 30 207 0.0 3.2 0.00 0.66 0.46 66 1040.4
20260902195533 30 195 0.0 3.2 0.00 0.66 0.46 66 1040.4
20260902195050 30 179 1.6 4.8 0.00 0.66 0.46 67 1040.6
20260902194528 30 149 0.0 1.6 0.00 0.66 0.46 67 1040.7
20260902194025 30 149 1.6 4.8 0.00 0.66 0.46 67 1040.8
20260902193522 30 149 1.6 4.8 0.00 0.66 0.46 69 1040.9
20260902193019 30 149 1.6 3.2 0.00 0.66 0.46 69 1040.9
20260902192516 30 101 1.6 4.8 0.00 0.66 0.46 69 1040.9
20260902192031 30 201 1.6 4.8 0.00 0.66 0.46 68 1041.0
20260902191529 29 89 0.0 4.8 0.00 0.66 0.46 69 1041.0
20260902191026 29 4 1.6 4.8 0.00 0.66 0.46 70 1041.0
20260902190523 29 130 0.0 3.2 0.00 0.66 0.46 70 1040.9
20260902190020 28 130 0.0 1.6 0.00 0.66 0.46 71 1041.1
20260902185537 28 130 1.6 4.8 0.00 0.66 0.46 71 1041.4
20260902185034 28 142 3.2 9.7 0.00 0.66 0.46 73 1041.5
20260902184531 28 147 1.6 6.4 0.00 0.66 0.46 74 1041.4
20260902184028 28 144 1.6 4.8 0.00 0.66 0.46 75 1041.5
20260902183525 28 170 1.6 6.4 0.00 0.66 0.46 75 1041.3
20260902183023 28 217 1.6 4.8 0.00 0.66 0.46 75 1041.3
20260902182519 28 208 1.6 11.3 0.00 0.66 0.46 75 1041.4
20260902182016 27 129 1.6 4.8 0.00 0.66 0.46 76 1041.4
20260902181532 27 131 1.6 4.8 0.00 0.66 0.46 75 1041.3
20260902181029 27 138 1.6 4.8 0.00 0.66 0.46 76 1041.5
20260902180526 27 139 1.6 4.8 0.00 0.66 0.46 76 1041.5
20260902180023 27 140 1.6 4.8 0.00 0.66 0.46 76 1041.5
20260902175520 27 148 1.6 4.8 0.00 0.66 0.46 76 1041.5
20260902175017 27 94 0.0 1.6 0.00 0.66 0.46 76 1041.5
20260902174534 27 95 1.6 3.2 0.00 0.66 0.46 77 1041.5
20260902174030 27 94 1.6 4.8 0.00 0.66 0.46 77 1041.5
20260902173527 27 109 1.6 4.8 0.00 0.66 0.46 78 1041.6
20260902173024 27 148 1.6 4.8 0.00 0.66 0.46 77 1041.6
20260902172541 27 152 1.6 4.8 0.00 0.66 0.46 77 1041.5
20260902172018 27 152 0.0 1.6 0.00 0.66 0.46 79 1041.5
20260902171535 27 153 0.0 3.2 0.00 0.66 0.46 79 1041.5
20260902171031 26 153 0.0 3.2 0.00 0.66 0.46 78 1041.6
20260902170528 26 152 0.0 3.2 0.00 0.66 0.46 79 1041.8
20260902170025 26 155 0.0 3.2 0.00 0.66 0.46 80 1042.0
20260902165522 26 156 0.0 3.2 0.00 0.66 0.46 79 1042.0
20260902165019 26 155 0.0 4.8 0.00 0.66 0.46 81 1041.9
20260902164516 26 0.0 0.0 0.00 0.66 0.46 82 1041.7
20260902164031 25 0.0 0.0 0.00 0.66 0.46 81 1041.7
20260902163529 25 0.0 0.0 0.00 0.66 0.46 82 1041.8
20260902163046 25 0.0 0.0 0.00 0.66 0.46 82 1042.0
20260902162524 25 0.0 0.0 0.00 0.66 0.46 83 1042.1
20260902162021 25 0.0 0.0 0.00 0.66 0.46 84 1042.0
20260902161517 25 0.0 0.0 0.00 0.66 0.46 85 1041.9
20260902161035 24 0.0 0.0 0.00 0.66 0.46 85 1041.8
20260902160550 24 0.0 0.0 0.00 0.66 0.46 87 1042.0
20260902160027 23 0.0 0.0 0.00 0.66 0.46 87 1042.1
20260902155524 23 172 1.6 4.8 0.00 0.66 0.46 88 1041.9
20260902155021 23 0.0 0.0 0.00 0.66 0.46 88 1042.0
20260902154538 23 0.0 0.0 0.00 0.66 0.46 89 1042.1
20260902154055 22 0.0 0.0 0.00 0.66 0.46 89 1041.8
20260902153531 22 0.0 0.0 0.00 0.66 0.46 89 1041.8
20260902153048 22 0.0 0.0 0.00 0.66 0.46 89 1042.1
20260902152526 22 0.0 0.0 0.00 0.66 0.46 90 1041.9
20260902152022 22 0.0 0.0 0.00 0.66 0.46 90 1041.8
20260902151519 22 0.0 0.0 0.00 0.66 0.46 90 1042.0
20260902151017 22 0.0 0.0 0.00 0.66 0.46 91 1042.0
20260902150534 22 0.0 0.0 0.00 0.66 0.46 91 1042.0
20260902150031 22 0.0 0.0 0.00 0.66 0.46 91 1041.9
20260902145528 22 175 0.0 1.6 0.00 0.66 0.46 91 1042.2
20260902145025 21 210 0.0 3.2 0.00 0.66 0.46 91 1042.1
20260902144522 21 0.0 0.0 0.00 0.66 0.46 91 1042.0
20260902144019 21 162 0.0 1.6 0.00 0.66 0.46 92 1042.0
20260902143537 21 162 0.0 3.2 0.00 0.66 0.46 92 1042.1
20260902143033 21 0.0 0.0 0.00 0.66 0.46 92 1042.0
20260902142530 21 0.0 0.0 0.00 0.66 0.46 92 1042.0
20260902142026 21 0.0 0.0 0.00 0.66 0.46 92 1041.9
20260902141544 21 0.0 0.0 0.00 0.66 0.46 92 1042.0
20260902141021 20 0.0 0.0 0.00 0.66 0.46 92 1042.1
20260902140519 20 0.0 0.0 0.00 0.66 0.46 92 1042.1
20260902140016 20 0.0 0.0 0.00 0.66 0.46 92 1042.2
20260902135551 20 0.0 0.0 0.00 0.66 0.46 92 1042.3
20260902135028 20 0.0 0.0 0.00 0.66 0.46 92 1042.3
20260902134525 20 0.0 0.0 0.00 0.66 0.46 92 1042.4
20260902134042 20 0.0 0.0 0.00 0.66 0.46 92 1042.8
20260902133519 19 0.0 0.0 0.00 0.66 0.46 92 1042.8
20260902133016 19 0.0 0.0 0.00 0.66 0.46 92 1042.7
20260902132531 19 0.0 0.0 0.00 0.66 0.46 92 1042.7
20260902132028 18 0.0 0.0 0.00 0.66 0.46 92 1042.9
20260902131525 18 0.0 0.0 0.00 0.66 0.46 92 1043.3
20260902131022 18 0.0 0.0 0.00 0.66 0.46 92 1043.0
20260902130519 18 0.0 0.0 0.00 0.66 0.46 92 1043.0
20260902130037 18 0.0 0.0 0.00 0.66 0.46 92 1042.9
20260902125533 18 0.0 0.0 0.00 0.66 0.46 92 1043.0
20260902125030 18 0.0 0.0 0.00 0.66 0.46 92 1043.1
20260902124527 18 0.0 0.0 0.00 0.66 0.46 92 1042.9
20260902124024 18 0.0 0.0 0.00 0.66 0.46 92 1042.7
20260902123521 18 0.0 0.0 0.00 0.66 0.46 92 1042.5
20260902123018 18 0.0 0.0 0.03 0.66 0.46 92 1042.4
20260902122536 18 0.0 0.0 0.05 0.66 0.46 92 1042.4
20260902122032 18 0.0 0.0 0.05 0.66 0.46 92 1042.4
20260902121529 18 0.0 0.0 0.05 0.66 0.46 92 1042.8
20260902121026 18 0.0 0.0 0.08 0.66 0.46 91 1042.6
20260902120524 18 152 0.0 1.6 0.10 0.66 0.46 91 1042.4
20260902120041 18 168 0.0 3.2 0.10 0.66 0.46 91 1041.5
20260902115517 18 0.0 0.0 0.10 0.66 0.46 91 1041.7
20260902115034 18 243 0.0 3.2 0.10 0.66 0.46 91 1041.5
20260902114550 18 263 0.0 4.8 0.10 0.66 0.46 91 1041.1
20260902114028 18 0.0 0.0 0.10 0.64 0.46 91 1041.1